QPF
0.00 0.00 0.00 0.00 0.00 0.00 0.00 0.00 0.00 0.00 0.00 0.00 0.00 0.00 0.00 0.00 0.00 0.00 0.00 0.00 0.00 0.00 0.00 0.00 0.00 0.00 0.00 0.00 0.00 0.00 0.00 0.00 0.00 0.00 0.00 0.00 0.00 0.00 0.00 0.00 0.00 0.00 0.00 0.00 0.00 0.00 0.00
0.00 0.00 0.00 0.00 0.00 0.00 0.00 0.00 0.00 0.00 0.00 0.00 0.00 0.00 0.00 0.00 0.00 0.00 0.00 0.00 0.00 0.00 0.00 0.00 0.00 0.00 0.00 0.00 0.00 0.00 0.00 0.00 0.00 0.00 0.00 0.00 0.00 0.00 0.00 0.00 0.00 0.00 0.00 0.00 0.00 0.00 0.00
0.00 0.00 0.00 0.00 0.00 0.00 0.00 0.00 0.00 0.00 0.00 0.00 0.00 0.00 0.00 0.00 0.00 0.00 0.00 0.00 0.00 0.00 0.00 0.00 0.00 0.00 0.00 0.00 0.00 0.00 0.00 0.00 0.00 0.00 0.00 0.00 0.00 0.00 0.00 0.00 0.00 0.00 0.00 0.00 0.00 0.00 0.00
0.00 0.00 0.00 0.00 0.00 0.00 0.00 0.00 0.00 0.00 0.00 0.00 0.00 0.00 0.00 0.00 0.00 0.00 0.00 0.00 0.00 0.00 0.00 0.00 0.00 0.00 0.00 0.00 0.00 0.00 0.00 0.00 0.00 0.00 0.00 0.00 0.00 0.00 0.00 0.00 0.00 0.00 0.00 0.00 0.00 0.00 0.00
0.00 0.00 0.00 0.00 0.00 0.00 0.00 0.00 0.00 0.00 0.00 0.00 0.00 0.00 0.00 0.00 0.00 0.00 0.00 0.00 0.00 0.00 0.00 0.00 0.00 0.00 0.00 0.00 0.00 0.00 0.00 0.00 0.00 0.00 0.00 0.00 0.00 0.00 0.00 0.00 0.00 0.00 0.00 0.00 0.00 0.00 0.00
0.00 0.00 0.00 0.00 0.00 0.00 0.00 0.00 0.00 0.00 0.00 0.00 0.00 0.00 0.00 0.00 0.00 0.00 0.00 0.00 0.00 0.00 0.00 0.00 0.00 0.00 0.00 0.00 0.00 0.00 0.00 0.00 0.00 0.00 0.00 0.00 0.00 0.00 0.00 0.00 0.00 0.00 0.00 0.00 0.00 0.00 0.00
0.00 0.00 0.00 0.00 0.00 0.00 0.00 0.00 0.00 0.00 0.00 0.00 0.00 0.00 0.00 0.00 0.00 0.00 0.00 0.00 0.00 0.00 0.00 0.00 0.00 0.00 0.00 0.00 0.00 0.00 0.00 0.00 0.00 0.00 0.00 0.00 0.00 0.00 0.00 0.00 0.00 0.00 0.00 0.00 0.00 0.00 0.00
0.00 0.00 0.00 0.00 0.00 0.00 0.00 0.00 0.00 0.00 0.00 0.00 0.00 0.00 0.00 0.00 0.00 0.00 0.00 0.00 0.00 0.00 0.00 0.00 0.00 0.00 0.00 0.00 0.00 0.00 0.00 0.00 0.00 0.00 0.00 0.00 0.00 0.00 0.00 0.00 0.00 0.00 0.00 0.00 0.00 0.00 0.00
0.00 0.00 0.00 0.00 0.00 0.00 0.00 0.00 0.00 0.00 0.00 0.00 0.00 0.00 0.00 0.00 0.00 0.00 0.00 0.00 0.00 0.00 0.00 0.00 0.00 0.00 0.00 0.00 0.00 0.00 0.00 0.00 0.00 0.00 0.00 0.00 0.00 0.00 0.00 0.00 0.00 0.00 0.00 0.00 0.00 0.00 0.00
0.00 0.00 0.00 0.00 0.00 0.00 0.00 0.00 0.00 0.00 0.00 0.00 0.00 0.00 0.00 0.00 0.00 0.00 0.00 0.00 0.00 0.00 0.00 0.00 0.00 0.00 0.00 0.00 0.00 0.00 0.00 0.00 0.00 0.00 0.00 0.00 0.00 0.00 0.00 0.00 0.00 0.00 0.00 0.00 0.00 0.00 0.00
0.00 0.00 0.00 0.00 0.00 0.00 0.00 0.00 0.00 0.00 0.00 0.00 0.00 0.00 0.00 0.00 0.00 0.00 0.00 0.00 0.00 0.00 0.00 0.00 0.00 0.00 0.00 0.00 0.00 0.00 0.00 0.00 0.00 0.00 0.00 0.00 0.00 0.00 0.00 0.00 0.00 0.00 0.00 0.00 0.00 0.00 0.00
0.00 0.00 0.00 0.00 0.00 0.00 0.00 0.00 0.00 0.00 0.00 0.00 0.00 0.00 0.00 0.00 0.00 0.00 0.00 0.00 0.00 0.00 0.00 0.00 0.00 0.00 0.00 0.00 0.00 0.00 0.00 0.00 0.00 0.00 0.00 0.00 0.00 0.00 0.00 0.00 0.00 0.00 0.00 0.00 0.00 0.00 0.00
0.00 0.00 0.00 0.00 0.00 0.00 0.00 0.00 0.00 0.00 0.00 0.00 0.00 0.00 0.00 0.00 0.00 0.00 0.00 0.00 0.00 0.00 0.00 0.00 0.00 0.00 0.00 0.00 0.00 0.00 0.00 0.00 0.00 0.00 0.00 0.00 0.00 0.00 0.00 0.00 0.00 0.00 0.00 0.00 0.00 0.00 0.00
0.00 0.00 0.00 0.00 0.00 0.00 0.00 0.00 0.00 0.00 0.00 0.00 0.00 0.00 0.00 0.00 0.00 0.00 0.00 0.00 0.00 0.00 0.00 0.00 0.00 0.00 0.00 0.00 0.00 0.00 0.00 0.00 0.00 0.00 0.00 0.00 0.00 0.00 0.00 0.00 0.00 0.00 0.00 0.00 0.00 0.00 0.00
0.00 0.00 0.00 0.00 0.00 0.00 0.00 0.00 0.00 0.00 0.00 0.00 0.00 0.00 0.00 0.00 0.00 0.00 0.00 0.00 0.00 0.00 0.00 0.00 0.00 0.00 0.00 0.00 0.00 0.00 0.00 0.00 0.00 0.00 0.00 0.00 0.00 0.00 0.00 0.00 0.00 0.00 0.00 0.00 0.00 0.00 0.00
0.00 0.00 0.00 0.00 0.00 0.00 0.00 0.00 0.00 0.00 0.00 0.00 0.00 0.00 0.00 0.00 0.00 0.00 0.00 0.00 0.00 0.00 0.00 0.00 0.00 0.00 0.00 0.00 0.00 0.00 0.00 0.00 0.00 0.00 0.00 0.00 0.00 0.00 0.00 0.00 0.00 0.00 0.00 0.00 0.00 0.00 0.00
0.00 0.00 0.00 0.00 0.00 0.00 0.00 0.00 0.00 0.00 0.00 0.00 0.00 0.00 0.00 0.00 0.00 0.00 0.00 0.00 0.00 0.00 0.00 0.00 0.00 0.00 0.00 0.00 0.00 0.00 0.00 0.00 0.00 0.00 0.00 0.00 0.00 0.00 0.00 0.00 0.00 0.00 0.00 0.00 0.00 0.00 0.00
0.00 0.00 0.00 0.00 0.00 0.00 0.00 0.00 0.00 0.00 0.00 0.00 0.00 0.00 0.00 0.00 0.00 0.00 0.00 0.00 0.00 0.00 0.00 0.00 0.00 0.00 0.00 0.00 0.00 0.00 0.00 0.00 0.00 0.00 0.00 0.00 0.00 0.00 0.00 0.00 0.00 0.00 0.00 0.00 0.00 0.00 0.00
0.00 0.00 0.00 0.00 0.00 0.00 0.00 0.00 0.00 0.00 0.00 0.00 0.00 0.00 0.00 0.00 0.00 0.00 0.00 0.00 0.00 0.00 0.00 0.00 0.00 0.00 0.00 0.00 0.00 0.00 0.00 0.00 0.00 0.00 0.00 0.00 0.00 0.00 0.00 0.00 0.00 0.00 0.00 0.00 0.00 0.00 0.00
0.00 0.00 0.00 0.00 0.00 0.00 0.00 0.00 0.00 0.00 0.00 0.00 0.00 0.00 0.00 0.00 0.00 0.00 0.00 0.00 0.00 0.00 0.00 0.00 0.00 0.00 0.00 0.00 0.00 0.00 0.00 0.00 0.00 0.00 0.00 0.00 0.00 0.00 0.00 0.00 0.00 0.00 0.00 0.00 0.00 0.00 0.00
0.00 0.00 0.00 0.00 0.00 0.00 0.00 0.01 0.00 0.00 0.00 0.00 0.00 0.00 0.00 0.00 0.00 0.00 0.00 0.00 0.00 0.00 0.00 0.00 0.00 0.00 0.00 0.00 0.00 0.00 0.00 0.00 0.00 0.00 0.00 0.00 0.00 0.00 0.00 0.00 0.00 0.00 0.00 0.00 0.00 0.00 0.00
0.00 0.00 0.00 0.00 0.00 0.00 0.00 0.01 0.01 0.00 0.00 0.00 0.00 0.00 0.00 0.00 0.00 0.00 0.00 0.00 0.00 0.00 0.00 0.00 0.00 0.00 0.00 0.00 0.00 0.00 0.00 0.00 0.00 0.00 0.00 0.00 0.00 0.00 0.00 0.00 0.00 0.00 0.00 0.00 0.00 0.00 0.00
0.00 0.01 0.01 0.00 0.01 0.01 0.01 0.01 0.01 0.01 0.00 0.00 0.00 0.00 0.00 0.00 0.00 0.00 0.00 0.00 0.00 0.00 0.00 0.00 0.00 0.00 0.00 0.00 0.00 0.00 0.00 0.00 0.00 0.00 0.00 0.00 0.00 0.00 0.00 0.00 0.00 0.00 0.00 0.00 0.00 0.00 0.00
0.01 0.01 0.00 0.00 0.01 0.01 0.01 0.01 0.00 0.01 0.03 0.00 0.00 0.01 0.01 0.00 0.00 0.00 0.00 0.00 0.00 0.00 0.00 0.00 0.00 0.00 0.00 0.00 0.00 0.00 0.00 0.00 0.00 0.00 0.00 0.00 0.00 0.00 0.00 0.00 0.00 0.00 0.00 0.00 0.00 0.00 0.00
0.01 0.00 0.00 0.01 0.01 0.01 0.01 0.01 0.00 0.01 0.03 0.02 0.00 0.01 0.02 0.00 0.00 0.00 0.00 0.00 0.00 0.00 0.00 0.00 0.00 0.00 0.00 0.00 0.00 0.00 0.00 0.00 0.00 0.00 0.00 0.00 0.00 0.00 0.00 0.00 0.00 0.00 0.00 0.00 0.00 0.00 0.00
0.00 0.00 0.00 0.00 0.00 0.00 0.01 0.01 0.00 0.01 0.02 0.03 0.00 0.02 0.02 0.01 0.00 0.00 0.00 0.00 0.00 0.00 0.00 0.00 0.00 0.00 0.00 0.00 0.00 0.00 0.00 0.00 0.00 0.00 0.00 0.00 0.00 0.00 0.00 0.00 0.00 0.00 0.00 0.00 0.00 0.00 0.00
0.00 0.00 0.00 0.00 0.00 0.01 0.00 0.01 0.01 0.01 0.01 0.04 0.00 0.01 0.02 0.01 0.00 0.00 0.00 0.00 0.00 0.00 0.01 0.00 0.00 0.00 0.00 0.00 0.00 0.00 0.00 0.00 0.00 0.00 0.00 0.00 0.00 0.00 0.00 0.00 0.00 0.00 0.00 0.00 0.00 0.00 0.00
0.00 0.00 0.00 0.00 0.00 0.00 0.00 0.00 0.00 0.00 0.01 0.05 0.00 0.00 0.03 0.01 0.00 0.00 0.00 0.00 0.00 0.00 0.01 0.00 0.00 0.00 0.00 0.00 0.00 0.00 0.00 0.00 0.00 0.00 0.00 0.00 0.00 0.00 0.00 0.00 0.00 0.00 0.00 0.00 0.01 0.00 0.00
0.00 0.00 0.00 0.00 0.00 0.01 0.00 0.01 0.01 0.01 0.01 0.06 0.02 0.00 0.02 0.02 0.00 0.00 0.00 0.00 0.00 0.00 0.01 0.01 0.01 0.01 0.01 0.00 0.00 0.00 0.00 0.00 0.00 0.00 0.00 0.00 0.01 0.00 0.00 0.00 0.00 0.00 0.00 0.00 0.00 0.00 0.00
MSLP
1029.64 1029.18 1028.78 1028.37 1027.89 1027.28 1026.75 1026.27 1025.71 1025.03 1024.45 1023.80 1023.07 1022.33 1021.55 1020.70 1019.81 1018.94 1018.14 1017.41 1016.73 1016.21 1015.81 1015.47 1015.20 1014.88 1014.36 1013.50 1010.48 1007.69 1007.72 1008.04 1008.44 1008.70 1008.75 1008.72 1008.86 1008.85 1008.82 1008.16 1007.73 1007.32 1006.61 1005.88 1005.58 1005.92 1006.26
1029.85 1029.39 1028.95 1028.55 1027.99 1027.44 1026.79 1026.23 1025.60 1024.99 1024.33 1023.62 1022.87 1022.10 1021.25 1020.28 1019.34 1018.48 1017.65 1016.88 1016.24 1015.71 1015.30 1015.08 1014.91 1014.78 1014.48 1012.34 1007.86 1007.38 1007.79 1008.22 1008.28 1008.44 1008.29 1008.52 1008.26 1008.16 1008.31 1008.12 1007.95 1007.09 1006.53 1005.69 1005.36 1005.71 1006.20
1030.25 1029.79 1029.27 1028.75 1028.27 1027.62 1027.02 1026.27 1025.64 1024.95 1024.23 1023.48 1022.62 1021.74 1020.86 1019.86 1018.89 1017.95 1017.05 1016.21 1015.60 1015.16 1014.82 1014.68 1014.60 1014.43 1013.79 1009.75 1007.63 1007.79 1008.06 1007.84 1007.49 1007.87 1007.98 1007.82 1007.72 1007.91 1008.01 1007.88 1007.53 1007.24 1007.04 1005.93 1005.11 1005.35 1005.73
1030.56 1030.08 1029.55 1028.95 1028.42 1027.87 1027.08 1026.35 1025.67 1024.95 1024.15 1023.28 1022.40 1021.48 1020.48 1019.40 1018.27 1017.20 1016.17 1015.28 1014.64 1014.25 1014.12 1014.09 1014.17 1014.08 1012.14 1008.20 1007.84 1007.94 1007.67 1007.39 1007.05 1007.13 1007.43 1007.26 1007.29 1007.63 1007.83 1007.81 1007.73 1007.71 1007.61 1006.92 1005.18 1004.93 1005.07
1030.89 1030.34 1029.79 1029.27 1028.72 1028.01 1027.30 1026.50 1025.78 1025.03 1024.17 1023.24 1022.22 1021.17 1020.08 1018.95 1017.74 1016.51 1015.27 1014.15 1013.29 1012.97 1013.50 1013.70 1013.95 1013.59 1010.61 1007.68 1007.38 1006.36 1006.74 1006.87 1006.90 1006.94 1006.99 1007.00 1007.22 1007.80 1008.14 1008.69 1009.08 1008.66 1008.32 1007.47 1006.17 1005.07 1005.12
1031.26 1030.65 1030.05 1029.45 1028.95 1028.20 1027.42 1026.65 1025.88 1025.08 1024.13 1023.11 1022.05 1020.92 1019.81 1018.59 1017.35 1016.09 1014.69 1013.34 1012.83 1012.70 1013.24 1013.38 1013.20 1013.16 1009.49 1007.39 1006.31 1005.94 1006.01 1006.43 1006.96 1007.26 1007.41 1007.63 1008.17 1008.59 1009.37 1009.92 1009.65 1009.50 1008.83 1007.89 1006.98 1005.52 1005.56
1031.55 1030.96 1030.31 1029.76 1029.10 1028.39 1027.58 1026.77 1025.99 1025.14 1024.07 1022.98 1021.93 1020.84 1019.67 1018.42 1017.17 1016.06 1014.81 1013.67 1013.92 1013.48 1013.18 1012.25 1011.57 1010.27 1008.42 1007.41 1006.11 1005.82 1005.82 1006.38 1007.03 1007.39 1008.02 1008.13 1008.98 1009.47 1009.41 1009.61 1009.61 1009.42 1009.06 1008.58 1007.45 1005.99 1006.34
1031.82 1031.26 1030.60 1029.93 1029.28 1028.56 1027.80 1026.98 1026.12 1025.18 1024.10 1022.94 1021.82 1020.71 1019.57 1018.43 1017.11 1016.27 1015.39 1015.69 1016.69 1016.75 1014.23 1011.36 1010.46 1010.07 1008.25 1008.42 1007.84 1006.25 1005.85 1006.60 1007.05 1007.66 1008.22 1008.98 1009.06 1008.63 1008.85 1009.21 1009.36 1009.21 1009.05 1008.36 1007.65 1006.60 1006.55
1032.22 1031.55 1030.90 1030.23 1029.48 1028.74 1027.96 1027.14 1026.23 1025.27 1024.18 1022.97 1021.77 1020.63 1019.50 1018.32 1016.86 1016.36 1016.43 1016.88 1016.43 1016.11 1015.00 1010.51 1009.05 1008.24 1007.39 1007.42 1007.32 1006.37 1006.28 1006.49 1007.09 1007.75 1008.19 1008.78 1008.25 1008.17 1008.66 1008.54 1008.88 1008.45 1008.36 1008.31 1007.96 1007.12 1006.51
1032.52 1031.88 1031.20 1030.41 1029.68 1028.94 1028.16 1027.29 1026.36 1025.36 1024.29 1023.07 1021.80 1020.63 1019.55 1018.48 1017.10 1017.43 1016.87 1016.51 1016.23 1016.02 1014.62 1009.80 1007.66 1006.04 1006.07 1006.22 1006.13 1005.46 1005.34 1006.45 1006.92 1007.36 1008.03 1008.25 1007.55 1007.73 1008.00 1007.97 1007.78 1007.84 1007.22 1007.31 1007.66 1007.91 1008.05
1032.80 1032.19 1031.55 1030.79 1029.95 1029.17 1028.33 1027.43 1026.47 1025.41 1024.26 1023.06 1021.78 1020.55 1019.54 1018.82 1018.73 1018.06 1017.11 1016.45 1016.02 1015.74 1013.08 1008.38 1006.52 1005.16 1005.30 1005.92 1005.77 1004.78 1004.83 1005.82 1006.60 1007.15 1007.73 1007.35 1006.92 1007.05 1007.02 1006.95 1006.83 1006.87 1006.52 1006.93 1007.37 1008.09 1008.55
1032.92 1032.23 1031.61 1030.95 1030.12 1029.27 1028.38 1027.46 1026.45 1025.38 1024.23 1022.92 1021.55 1020.16 1019.34 1018.54 1018.56 1017.43 1016.72 1016.27 1016.07 1015.50 1011.73 1008.75 1007.62 1007.29 1006.69 1006.35 1006.09 1005.39 1005.21 1005.54 1006.14 1007.23 1007.29 1007.20 1006.45 1006.36 1006.09 1005.92 1006.12 1006.16 1006.43 1007.16 1007.76 1008.69 1009.22
1033.16 1032.44 1031.77 1031.05 1030.27 1029.42 1028.49 1027.49 1026.42 1025.32 1024.14 1022.77 1021.19 1019.70 1018.74 1018.51 1017.86 1016.76 1016.61 1016.48 1016.23 1014.53 1011.52 1011.05 1009.87 1009.22 1008.64 1007.56 1006.90 1006.51 1006.57 1007.09 1007.68 1008.14 1008.00 1007.62 1006.89 1006.19 1005.89 1005.98 1005.84 1006.26 1007.05 1008.59 1009.27 1009.76 1008.75
1033.29 1032.70 1032.01 1031.21 1030.46 1029.58 1028.67 1027.62 1026.44 1025.32 1024.06 1022.65 1020.90 1019.44 1018.36 1017.74 1017.08 1016.85 1016.66 1016.60 1016.09 1014.44 1013.54 1012.53 1011.22 1010.04 1009.77 1009.27 1008.79 1008.28 1008.00 1009.31 1009.89 1009.78 1009.29 1008.71 1007.64 1006.32 1005.48 1005.59 1005.88 1006.26 1007.31 1008.54 1009.45 1009.90 1008.96
1033.37 1032.78 1032.13 1031.43 1030.61 1029.68 1028.77 1027.84 1026.69 1025.46 1024.07 1022.60 1020.88 1019.43 1018.76 1017.50 1016.93 1016.75 1016.95 1016.67 1016.58 1015.49 1014.81 1013.72 1012.27 1011.50 1011.37 1011.20 1011.16 1010.57 1011.66 1012.35 1012.32 1012.06 1011.77 1010.42 1008.64 1006.85 1005.84 1005.61 1005.96 1006.13 1006.85 1007.50 1008.79 1009.48 1009.49
1033.36 1032.80 1032.17 1031.51 1030.73 1029.83 1028.86 1027.95 1026.94 1025.78 1024.34 1022.69 1021.78 1020.58 1018.88 1017.23 1016.54 1016.58 1016.89 1016.89 1016.78 1016.25 1015.30 1014.60 1014.17 1013.90 1013.63 1013.81 1013.22 1012.82 1013.59 1014.72 1014.00 1013.54 1012.79 1012.47 1010.87 1008.39 1006.70 1005.92 1006.15 1006.31 1006.69 1007.95 1008.91 1009.53 1009.46
1033.40 1032.83 1032.19 1031.52 1030.78 1030.02 1029.13 1028.17 1027.21 1026.14 1024.82 1023.14 1022.36 1021.07 1018.57 1017.33 1016.66 1017.17 1018.04 1017.84 1017.15 1016.76 1016.31 1016.01 1015.89 1015.56 1015.75 1015.88 1015.47 1015.01 1015.27 1016.23 1015.82 1014.94 1014.35 1014.02 1012.72 1010.47 1008.59 1007.67 1008.03 1007.78 1008.23 1008.61 1008.83 1008.85 1008.84
1033.27 1032.73 1032.17 1031.52 1030.87 1030.16 1029.35 1028.48 1027.58 1026.54 1025.35 1024.00 1023.80 1022.44 1019.36 1018.18 1018.84 1019.88 1019.84 1018.95 1017.76 1017.47 1017.22 1017.15 1017.06 1017.22 1017.28 1017.25 1017.04 1016.76 1017.40 1017.54 1017.56 1016.69 1016.18 1015.43 1014.42 1012.82 1010.85 1009.24 1009.22 1009.31 1010.55 1010.39 1010.58 1010.13 1009.63
1033.11 1032.64 1032.06 1031.52 1030.92 1030.27 1029.55 1028.76 1027.96 1027.09 1026.24 1025.82 1025.52 1024.10 1020.96 1020.31 1022.29 1022.43 1021.22 1019.93 1018.83 1018.55 1018.58 1018.54 1018.60 1018.67 1018.53 1018.70 1018.60 1018.56 1018.75 1018.94 1018.63 1018.01 1018.02 1016.87 1015.72 1014.64 1012.35 1011.15 1011.13 1011.47 1012.21 1012.27 1011.61 1011.24 1010.47
1032.94 1032.46 1031.91 1031.46 1030.94 1030.39 1029.71 1029.00 1028.31 1027.55 1026.70 1026.37 1026.50 1025.74 1024.53 1024.30 1024.99 1024.42 1023.11 1021.31 1020.43 1019.86 1019.76 1019.77 1020.06 1019.74 1019.77 1019.82 1019.90 1019.80 1019.65 1019.59 1019.64 1019.36 1018.67 1017.64 1017.31 1016.66 1015.92 1015.17 1014.54 1013.77 1013.63 1013.48 1012.99 1012.28 1011.56
1032.63 1032.29 1031.80 1031.35 1030.92 1030.40 1029.83 1029.23 1028.70 1027.97 1027.17 1027.02 1027.57 1027.74 1027.38 1027.11 1026.16 1025.27 1024.09 1022.61 1021.62 1021.05 1020.84 1020.73 1020.74 1021.05 1021.25 1021.25 1021.06 1020.88 1020.67 1020.36 1020.41 1020.24 1020.31 1020.16 1019.31 1018.37 1017.58 1016.72 1015.66 1014.57 1014.12 1014.24 1013.87 1013.23 1012.65
1032.36 1031.94 1031.55 1031.23 1030.78 1030.36 1029.81 1029.35 1028.97 1028.45 1027.79 1028.03 1028.68 1028.80 1028.13 1027.65 1026.75 1025.96 1024.84 1024.10 1023.31 1022.53 1021.89 1021.71 1021.86 1021.91 1021.97 1022.18 1022.23 1021.97 1021.83 1021.68 1021.48 1020.98 1021.32 1021.23 1020.50 1019.47 1018.19 1017.41 1016.54 1015.41 1014.18 1014.23 1014.07 1013.49 1012.64
1031.92 1031.57 1031.13 1030.73 1030.37 1030.11 1029.72 1029.31 1029.04 1028.73 1028.66 1029.13 1029.10 1028.91 1028.86 1027.92 1027.19 1026.67 1025.78 1025.18 1024.32 1023.75 1022.94 1022.70 1022.62 1022.49 1022.48 1022.68 1022.50 1022.20 1022.01 1021.99 1021.87 1021.67 1021.76 1021.81 1021.35 1020.60 1019.06 1018.43 1017.53 1016.07 1014.52 1013.55 1013.01 1012.98 1012.64
1031.47 1031.14 1030.75 1030.35 1030.01 1029.78 1029.47 1029.18 1028.90 1028.75 1028.64 1029.27 1029.43 1029.41 1029.10 1028.19 1027.50 1026.93 1026.09 1025.62 1025.11 1024.66 1024.12 1023.51 1023.10 1022.85 1022.98 1022.45 1022.42 1022.13 1021.92 1021.72 1021.49 1021.15 1021.11 1021.33 1021.53 1021.38 1020.47 1019.79 1018.28 1015.13 1014.34 1013.98 1013.46 1013.22 1013.23
1030.97 1030.60 1030.28 1029.92 1029.65 1029.44 1029.20 1028.95 1028.71 1028.54 1028.36 1028.88 1029.02 1029.30 1029.16 1028.24 1027.39 1026.70 1026.17 1025.68 1025.20 1024.88 1024.56 1024.04 1023.36 1022.94 1022.77 1022.86 1023.17 1023.06 1022.68 1021.94 1021.04 1020.31 1019.94 1020.46 1021.29 1021.54 1021.04 1019.97 1017.78 1015.57 1014.49 1014.24 1014.11 1014.58 1014.95
1030.49 1030.11 1029.78 1029.49 1029.21 1029.01 1028.80 1028.59 1028.38 1028.17 1028.01 1028.33 1028.49 1028.54 1028.82 1028.20 1026.90 1026.50 1026.28 1026.04 1025.74 1025.25 1024.77 1023.98 1023.35 1023.12 1023.13 1023.76 1024.38 1024.87 1024.33 1023.29 1022.21 1020.68 1019.94 1020.42 1020.43 1020.79 1021.00 1020.28 1018.25 1016.30 1015.31 1015.00 1014.14 1015.31 1016.23
1029.98 1029.63 1029.30 1028.99 1028.70 1028.51 1028.30 1028.09 1027.90 1027.70 1027.56 1027.84 1027.94 1027.87 1028.16 1027.55 1026.37 1026.22 1025.94 1025.65 1025.40 1025.12 1024.96 1024.53 1023.97 1023.47 1023.47 1024.50 1025.27 1025.43 1024.64 1023.84 1022.98 1021.70 1020.79 1020.69 1020.75 1021.03 1020.92 1019.89 1018.42 1017.96 1016.96 1015.41 1015.53 1017.48 1016.93
1029.26 1028.96 1028.65 1028.36 1028.10 1027.93 1027.76 1027.54 1027.34 1027.15 1026.98 1027.13 1026.99 1027.14 1027.46 1026.59 1025.31 1025.08 1024.79 1024.89 1024.71 1024.83 1024.78 1024.31 1024.39 1023.64 1023.79 1024.47 1024.97 1025.00 1024.23 1023.49 1022.84 1021.96 1021.36 1021.39 1021.40 1020.86 1019.98 1019.09 1018.70 1017.86 1016.89 1017.09 1017.54 1017.51 1016.60
1028.58 1028.31 1028.03 1027.70 1027.50 1027.34 1027.17 1026.98 1026.69 1026.56 1026.32 1026.33 1026.41 1026.12 1026.10 1025.67 1024.16 1023.64 1023.35 1022.99 1023.20 1023.24 1023.68 1023.64 1023.65 1023.59 1023.83 1023.96 1024.16 1024.07 1023.57 1022.87 1022.21 1021.49 1021.49 1021.53 1021.18 1020.64 1020.27 1018.81 1017.75 1018.37 1017.94 1017.44 1017.04 1017.03 1016.16
Thickness
5556 5557 5557 5558 5559 5561 5563 5565 5567 5570 5573 5577 5582 5588 5593 5599 5606 5612 5618 5624 5629 5634 5637 5640 5642 5645 5650 5656 5671 5703 5702 5699 5696 5693 5687 5686 5684 5684 5682 5695 5699 5700 5719 5737 5748 5744 5742
5548 5549 5549 5550 5552 5554 5556 5558 5561 5563 5567 5571 5576 5582 5588 5595 5602 5609 5614 5620 5625 5630 5633 5635 5637 5639 5642 5650 5696 5700 5696 5692 5690 5687 5686 5682 5682 5685 5682 5686 5688 5702 5712 5724 5738 5737 5736
5538 5539 5540 5541 5542 5545 5548 5552 5554 5558 5562 5566 5572 5578 5584 5591 5599 5606 5613 5619 5623 5626 5629 5630 5631 5633 5638 5660 5692 5691 5689 5689 5692 5686 5679 5684 5687 5680 5684 5684 5697 5701 5695 5713 5731 5737 5734
5529 5530 5531 5532 5534 5536 5539 5543 5547 5551 5556 5561 5567 5573 5581 5588 5597 5605 5613 5619 5624 5626 5627 5627 5626 5628 5639 5676 5684 5683 5685 5685 5690 5689 5683 5685 5687 5680 5678 5686 5681 5683 5685 5680 5723 5735 5738
5521 5522 5522 5523 5525 5527 5530 5534 5538 5543 5548 5554 5561 5568 5576 5584 5593 5603 5612 5621 5627 5629 5625 5622 5621 5624 5639 5675 5675 5689 5686 5679 5682 5683 5681 5684 5679 5667 5666 5654 5646 5653 5651 5671 5694 5725 5728
5512 5513 5514 5515 5516 5518 5522 5525 5529 5534 5540 5546 5553 5562 5569 5578 5588 5598 5609 5619 5623 5624 5619 5617 5621 5619 5648 5663 5677 5683 5685 5679 5670 5669 5665 5663 5648 5642 5634 5629 5626 5636 5651 5663 5673 5706 5712
5505 5506 5507 5507 5508 5510 5513 5516 5520 5525 5531 5538 5545 5553 5561 5570 5580 5590 5600 5608 5603 5609 5611 5620 5628 5634 5651 5661 5674 5673 5678 5669 5664 5659 5639 5649 5631 5622 5631 5633 5638 5645 5643 5642 5660 5693 5693
5499 5499 5500 5501 5502 5503 5505 5508 5510 5515 5521 5528 5535 5543 5552 5560 5571 5578 5585 5582 5573 5573 5591 5619 5624 5628 5642 5642 5640 5656 5669 5653 5648 5635 5640 5631 5620 5639 5641 5637 5635 5635 5633 5640 5655 5677 5679
5492 5492 5492 5492 5493 5494 5497 5499 5502 5506 5511 5517 5525 5534 5542 5551 5563 5566 5565 5561 5566 5570 5574 5614 5626 5632 5636 5641 5637 5643 5653 5649 5640 5631 5629 5617 5634 5642 5636 5633 5629 5634 5634 5636 5641 5661 5670
5483 5483 5483 5484 5484 5485 5486 5488 5492 5496 5501 5507 5514 5522 5531 5539 5549 5546 5551 5555 5558 5561 5561 5614 5624 5637 5639 5640 5636 5652 5653 5641 5635 5627 5625 5620 5639 5635 5631 5630 5635 5624 5645 5648 5645 5639 5626
5474 5473 5472 5473 5474 5474 5476 5478 5481 5484 5490 5496 5504 5512 5519 5524 5524 5530 5540 5545 5549 5554 5552 5619 5621 5641 5638 5628 5633 5645 5651 5636 5624 5627 5621 5622 5637 5632 5626 5631 5639 5630 5646 5643 5645 5627 5628
5465 5465 5463 5462 5462 5462 5463 5465 5468 5472 5477 5484 5492 5502 5507 5515 5514 5524 5531 5535 5538 5527 5551 5593 5601 5598 5608 5618 5621 5631 5633 5637 5631 5618 5620 5622 5639 5637 5633 5642 5643 5645 5643 5631 5622 5611 5594
5454 5453 5451 5449 5449 5449 5450 5452 5455 5457 5461 5468 5479 5488 5496 5499 5504 5515 5518 5521 5519 5492 5573 5561 5566 5577 5583 5597 5604 5609 5609 5602 5595 5591 5595 5611 5617 5628 5635 5625 5632 5631 5609 5585 5588 5584 5600
5443 5440 5438 5437 5435 5435 5434 5436 5439 5441 5446 5452 5464 5473 5482 5487 5494 5499 5502 5509 5480 5538 5535 5544 5553 5561 5568 5573 5577 5580 5589 5569 5571 5574 5584 5584 5588 5613 5630 5620 5616 5614 5605 5576 5575 5574 5591
5431 5428 5425 5423 5421 5419 5417 5416 5419 5423 5428 5436 5447 5459 5463 5473 5478 5482 5486 5492 5487 5508 5514 5521 5537 5545 5543 5548 5550 5556 5542 5537 5546 5551 5554 5563 5583 5607 5618 5622 5614 5608 5597 5607 5590 5588 5578
5420 5417 5413 5409 5405 5402 5398 5396 5397 5403 5409 5420 5425 5432 5446 5458 5466 5468 5470 5475 5475 5487 5499 5505 5504 5514 5513 5508 5520 5529 5522 5515 5526 5532 5542 5540 5551 5586 5603 5615 5609 5606 5609 5585 5572 5568 5565
5408 5403 5399 5394 5389 5384 5379 5377 5379 5386 5392 5404 5407 5412 5436 5445 5452 5449 5433 5448 5462 5469 5472 5475 5476 5485 5482 5479 5490 5498 5508 5489 5497 5511 5515 5511 5532 5555 5581 5585 5573 5576 5572 5576 5580 5576 5573
5397 5391 5385 5379 5373 5366 5363 5362 5362 5369 5377 5386 5381 5385 5420 5429 5416 5405 5405 5428 5447 5448 5452 5450 5455 5457 5457 5460 5464 5476 5458 5466 5466 5480 5484 5494 5497 5512 5550 5572 5570 5570 5550 5557 5548 5558 5561
5387 5380 5373 5365 5358 5351 5349 5350 5349 5352 5358 5362 5360 5364 5398 5402 5369 5369 5397 5417 5428 5426 5425 5424 5426 5429 5435 5435 5437 5441 5440 5444 5447 5459 5455 5472 5479 5483 5528 5549 5543 5535 5534 5536 5544 5545 5551
5377 5370 5362 5353 5345 5340 5337 5337 5338 5338 5344 5346 5344 5339 5350 5357 5352 5358 5367 5391 5396 5406 5406 5406 5401 5409 5409 5410 5414 5412 5419 5427 5427 5433 5445 5456 5465 5469 5470 5479 5495 5499 5511 5519 5525 5525 5528
5369 5360 5351 5343 5336 5330 5326 5326 5327 5327 5331 5332 5324 5316 5330 5304 5325 5343 5354 5373 5377 5382 5388 5388 5383 5382 5380 5382 5389 5391 5399 5405 5410 5417 5410 5411 5420 5433 5440 5455 5474 5486 5494 5498 5503 5513 5511
5359 5351 5343 5334 5328 5321 5317 5314 5313 5315 5316 5314 5299 5303 5314 5316 5327 5330 5340 5343 5348 5358 5367 5366 5363 5366 5365 5361 5366 5366 5374 5377 5382 5390 5383 5386 5389 5408 5427 5445 5453 5463 5483 5482 5484 5496 5507
5353 5345 5337 5330 5323 5316 5310 5307 5304 5303 5302 5293 5295 5297 5296 5307 5312 5312 5320 5328 5335 5339 5346 5350 5348 5346 5347 5348 5352 5359 5362 5362 5365 5369 5367 5365 5371 5382 5400 5410 5420 5413 5456 5473 5488 5493 5497
5346 5338 5331 5325 5319 5312 5306 5302 5299 5296 5294 5288 5286 5286 5285 5289 5303 5307 5312 5316 5316 5319 5323 5330 5331 5330 5334 5340 5342 5346 5350 5353 5353 5357 5359 5361 5360 5362 5364 5379 5312 5446 5454 5453 5464 5482 5467
5341 5334 5327 5321 5315 5308 5303 5298 5295 5291 5289 5284 5281 5278 5280 5283 5297 5300 5305 5307 5306 5306 5307 5312 5320 5324 5323 5325 5320 5321 5323 5338 5352 5357 5356 5356 5351 5339 5315 5364 5395 5428 5437 5431 5427 5431 5421
5335 5329 5323 5317 5311 5306 5301 5296 5292 5289 5286 5283 5277 5276 5273 5279 5285 5295 5291 5293 5288 5292 5296 5306 5311 5311 5309 5302 5288 5253 5276 5313 5323 5342 5355 5352 5351 5342 5338 5338 5334 5401 5395 5403 5421 5400 5389
5329 5323 5318 5313 5308 5303 5299 5295 5291 5288 5284 5280 5277 5272 5268 5271 5285 5282 5277 5280 5286 5285 5281 5288 5292 5295 5299 5277 5230 5256 5289 5304 5296 5317 5330 5327 5331 5318 5328 5336 5358 5349 5368 5385 5391 5366 5368
5325 5319 5314 5309 5305 5301 5296 5292 5289 5286 5283 5278 5278 5270 5264 5268 5282 5282 5284 5278 5280 5274 5270 5279 5275 5279 5277 5265 5258 5258 5277 5288 5292 5307 5313 5309 5288 5303 5329 5313 5327 5342 5353 5351 5349 5346 5364
5319 5314 5309 5306 5300 5296 5292 5289 5286 5283 5280 5275 5273 5272 5265 5266 5277 5283 5285 5284 5278 5275 5270 5267 5269 5272 5268 5261 5261 5240 5260 5264 5288 5282 5300 5286 5293 5296 5295 5317 5328 5323 5329 5342 5345 5347 5360